| time (UTC) | temp F | wind direction | speed knots | gust knots | rain 1hr in | rain 24hr in | rain mn in | humidity % | barometer mb |
| 20260510011611 | 72 | 212 | 4.3 | 10.4 | 0.00 | 0.00 | 0.00 | 67 | 1026.9 |
| 20260510010105 | 72 | 181 | 3.5 | 8.7 | 0.00 | 0.00 | 0.00 | 68 | 1027.1 |
| 20260510004550 | 71 | 190 | 1.7 | 7.0 | 0.00 | 0.00 | 0.00 | 69 | 1027.3 |
| 20260510003047 | 70 | 200 | 0.9 | 7.0 | 0.00 | 0.00 | 0.00 | 69 | 1027.5 |
| 20260510001546 | 70 | 197 | 3.5 | 7.8 | 0.00 | 0.00 | 0.00 | 69 | 1027.6 |
| 20260510000048 | 70 | 190 | 3.5 | 6.1 | 0.00 | 0.00 | 0.00 | 71 | 1027.7 |
| 20260509234540 | 69 | 286 | 1.7 | 7.0 | 0.00 | 0.00 | 0.00 | 72 | 1027.7 |
| 20260509233035 | 68 | 207 | 1.7 | 6.1 | 0.00 | 0.00 | 0.00 | 71 | 1027.7 |
| 20260509231531 | 67 | 167 | 0.9 | 8.7 | 0.00 | 0.00 | 0.00 | 72 | 1027.6 |
| 20260509230027 | 66 | 114 | 1.7 | 8.7 | 0.00 | 0.00 | 0.00 | 74 | 1027.3 |
| 20260509224525 | 65 | 167 | 4.3 | 7.0 | 0.00 | 0.00 | 0.00 | 73 | 1027.1 |
| 20260509223025 | 65 | 178 | 0.9 | 8.7 | 0.00 | 0.00 | 0.00 | 74 | 1027.0 |
| 20260509221518 | 64 | 51 | 2.6 | 9.6 | 0.00 | 0.00 | 0.00 | 75 | 1026.9 |
| 20260509220016 | 63 | 206 | 0.9 | 5.2 | 0.00 | 0.00 | 0.00 | 76 | 1026.7 |
| 20260509214511 | 62 | 140 | 1.7 | 3.5 | 0.00 | 0.00 | 0.00 | 78 | 1026.6 |
| 20260509213006 | 60 | 46 | 0.9 | 2.6 | 0.00 | 0.00 | 0.00 | 79 | 1026.4 |
| 20260509211502 | 59 | 89 | 0.0 | 4.3 | 0.00 | 0.00 | 0.00 | 82 | 1026.4 |
| 20260509204603 | 56 | 142 | 1.7 | 3.5 | 0.00 | 0.00 | 0.00 | 85 | 1025.7 |
| 20260509203059 | 55 | 286 | 0.9 | 2.6 | 0.00 | 0.00 | 0.00 | 86 | 1025.6 |
| 20260509201552 | 55 | 219 | 1.7 | 4.3 | 0.00 | 0.00 | 0.00 | 86 | 1025.4 |
| 20260509200051 | 55 | 187 | 2.6 | 4.3 | 0.00 | 0.00 | 0.00 | 84 | 1025.3 |
| 20260509194550 | 56 | 178 | 0.9 | 2.6 | 0.00 | 0.00 | 0.00 | 82 | 1025.3 |
| 20260509193047 | 56 | 234 | 0.9 | 2.6 | 0.00 | 0.00 | 0.00 | 83 | 1025.3 |
| 20260509191546 | 55 | 20 | 0.9 | 2.6 | 0.00 | 0.00 | 0.00 | 85 | 1025.0 |
| 20260509190049 | 56 | 166 | 0.9 | 3.5 | 0.00 | 0.00 | 0.00 | 84 | 1024.9 |
| 20260509184547 | 56 | 156 | 0.9 | 3.5 | 0.00 | 0.00 | 0.00 | 84 | 1024.7 |
| 20260509183044 | 56 | 46 | 0.0 | 2.6 | 0.00 | 0.00 | 0.00 | 83 | 1024.7 |
| 20260509181545 | 56 | 321 | 0.9 | 1.7 | 0.00 | 0.00 | 0.00 | 84 | 1024.7 |
| 20260509180042 | 55 | 283 | 1.7 | 3.5 | 0.00 | 0.00 | 0.00 | 85 | 1024.6 |
| 20260509174640 | 56 | 286 | 1.7 | 3.5 | 0.00 | 0.00 | 0.00 | 85 | 1024.6 |
| 20260509173038 | 56 | 197 | 0.0 | 1.7 | 0.00 | 0.00 | 0.00 | 82 | 1024.7 |
| 20260509171538 | 58 | 135 | 0.0 | 1.7 | 0.00 | 0.00 | 0.00 | 80 | 1024.7 |
| 20260509170036 | 56 | 135 | 0.0 | 1.7 | 0.00 | 0.00 | 0.00 | 84 | 1024.5 |
| 20260509164535 | 57 | 295 | 0.9 | 1.7 | 0.00 | 0.00 | 0.00 | 83 | 1024.6 |
| 20260509163047 | 56 | 314 | 0.9 | 1.7 | 0.00 | 0.00 | 0.00 | 85 | 1024.7 |
| 20260509161532 | 56 | 319 | 0.9 | 1.7 | 0.00 | 0.00 | 0.00 | 86 | 1024.8 |
| 20260509160031 | 55 | 331 | 0.0 | 2.6 | 0.00 | 0.00 | 0.00 | 89 | 1024.7 |
| 20260509154530 | 54 | 324 | 0.0 | 2.6 | 0.00 | 0.00 | 0.00 | 90 | 1024.7 |
| 20260509153026 | 54 | 1 | 0.0 | 2.6 | 0.00 | 0.00 | 0.00 | 89 | 1024.7 |
| 20260509151523 | 55 | 283 | 0.0 | 1.7 | 0.00 | 0.00 | 0.00 | 87 | 1025.0 |
| 20260509150019 | 56 | 201 | 0.9 | 2.6 | 0.00 | 0.00 | 0.00 | 86 | 1025.0 |
| 20260509144516 | 57 | 178 | 0.9 | 1.7 | 0.00 | 0.00 | 0.00 | 84 | 1024.9 |
| 20260509143015 | 58 | 46 | 0.0 | 0.9 | 0.00 | 0.00 | 0.00 | 84 | 1024.9 |
| 20260509141514 | 57 | 169 | 1.7 | 2.6 | 0.00 | 0.00 | 0.00 | 85 | 1024.9 |
| 20260509140012 | 57 | 284 | 0.9 | 2.6 | 0.00 | 0.00 | 0.00 | 85 | 1024.9 |
| 20260509134508 | 57 | 303 | 3.5 | 7.0 | 0.00 | 0.00 | 0.00 | 87 | 1024.9 |
| 20260509133007 | 57 | 286 | 1.7 | 4.3 | 0.00 | 0.00 | 0.00 | 86 | 1025.1 |
| 20260509131506 | 57 | 297 | 2.6 | 3.5 | 0.00 | 0.00 | 0.00 | 86 | 1025.2 |
| 20260509130012 | 56 | 283 | 1.7 | 4.3 | 0.00 | 0.00 | 0.00 | 87 | 1025.2 |
| 20260509124505 | 57 | 317 | 1.7 | 3.5 | 0.00 | 0.00 | 0.00 | 85 | 1025.1 |
| 20260509123057 | 57 | 314 | 2.6 | 4.3 | 0.00 | 0.00 | 0.00 | 84 | 1025.1 |
| 20260509121556 | 58 | 286 | 1.7 | 3.5 | 0.00 | 0.00 | 0.00 | 83 | 1025.2 |
| 20260509120056 | 59 | 297 | 1.7 | 4.3 | 0.00 | 0.00 | 0.00 | 82 | 1025.2 |
| 20260509114600 | 58 | 311 | 2.6 | 5.2 | 0.00 | 0.00 | 0.00 | 83 | 1025.3 |
| 20260509113055 | 59 | 303 | 1.7 | 4.3 | 0.00 | 0.00 | 0.00 | 82 | 1025.3 |
| 20260509111554 | 58 | 311 | 2.6 | 4.3 | 0.00 | 0.00 | 0.00 | 83 | 1025.2 |
| 20260509110057 | 59 | 301 | 1.7 | 3.5 | 0.00 | 0.00 | 0.00 | 82 | 1025.2 |
| 20260509104552 | 59 | 295 | 2.6 | 5.2 | 0.00 | 0.00 | 0.00 | 81 | 1025.2 |
| 20260509103050 | 59 | 297 | 2.6 | 6.1 | 0.00 | 0.00 | 0.00 | 81 | 1025.1 |
| 20260509101549 | 59 | 298 | 1.7 | 3.5 | 0.00 | 0.00 | 0.00 | 80 | 1025.0 |
| 20260509094546 | 61 | 305 | 1.7 | 3.5 | 0.00 | 0.00 | 0.00 | 76 | 1024.9 |
| 20260509093045 | 61 | 295 | 0.9 | 2.6 | 0.00 | 0.00 | 0.00 | 75 | 1024.6 |
| 20260509091542 | 62 | 303 | 0.9 | 2.6 | 0.00 | 0.00 | 0.00 | 73 | 1024.5 |
| 20260509090041 | 63 | 314 | 0.9 | 2.6 | 0.00 | 0.00 | 0.00 | 69 | 1024.4 |
| 20260509084546 | 63 | 314 | 0.9 | 2.6 | 0.00 | 0.00 | 0.00 | 68 | 1024.2 |
| 20260509083039 | 65 | 286 | 0.0 | 0.9 | 0.00 | 0.00 | 0.00 | 63 | 1023.9 |
| 20260509081539 | 65 | 286 | 0.0 | 1.7 | 0.00 | 0.00 | 0.00 | 63 | 1023.8 |
| 20260509080054 | 66 | 178 | 0.9 | 2.6 | 0.00 | 0.00 | 0.00 | 62 | 1023.6 |
| 20260509074537 | 67 | 160 | 0.9 | 2.6 | 0.00 | 0.00 | 0.00 | 60 | 1023.5 |
| 20260509073110 | 68 | 124 | 0.0 | 2.6 | 0.00 | 0.00 | 0.00 | 57 | 1023.3 |
| 20260509071534 | 69 | 124 | 0.9 | 5.2 | 0.00 | 0.00 | 0.00 | 55 | 1023.3 |
| 20260509070034 | 70 | 164 | 1.7 | 7.0 | 0.00 | 0.00 | 0.00 | 55 | 1023.0 |
| 20260509064533 | 71 | 119 | 3.5 | 8.7 | 0.00 | 0.00 | 0.00 | 54 | 1022.8 |
| 20260509063033 | 71 | 121 | 3.5 | 8.7 | 0.00 | 0.00 | 0.00 | 54 | 1022.6 |
| 20260509061532 | 72 | 135 | 2.6 | 7.0 | 0.00 | 0.00 | 0.00 | 53 | 1022.4 |
| 20260509060030 | 72 | 135 | 1.7 | 8.7 | 0.00 | 0.00 | 0.00 | 53 | 1022.2 |
| 20260509054535 | 72 | 135 | 0.9 | 7.8 | 0.00 | 0.00 | 0.00 | 52 | 1022.2 |
| 20260509053031 | 73 | 148 | 1.7 | 7.0 | 0.00 | 0.00 | 0.00 | 51 | 1022.1 |
| 20260509051527 | 73 | 168 | 4.3 | 7.8 | 0.00 | 0.00 | 0.00 | 51 | 1022.0 |
| 20260509050034 | 73 | 161 | 0.9 | 3.5 | 0.00 | 0.00 | 0.00 | 51 | 1022.0 |
| 20260509044523 | 73 | 135 | 0.9 | 6.1 | 0.00 | 0.00 | 0.00 | 54 | 1022.0 |
| 20260509043037 | 72 | 124 | 1.7 | 6.1 | 0.00 | 0.00 | 0.00 | 54 | 1022.0 |
| 20260509041520 | 73 | 130 | 5.2 | 9.6 | 0.00 | 0.00 | 0.00 | 53 | 1022.1 |
| 20260509040019 | 74 | 129 | 0.9 | 6.1 | 0.00 | 0.00 | 0.00 | 53 | 1022.0 |
| 20260509034518 | 73 | 144 | 1.7 | 4.3 | 0.00 | 0.00 | 0.00 | 54 | 1022.1 |
| 20260509033020 | 73 | 132 | 2.6 | 8.7 | 0.00 | 0.00 | 0.00 | 55 | 1022.2 |
| 20260509031518 | 73 | 13 | 0.9 | 5.2 | 0.00 | 0.00 | 0.00 | 57 | 1022.5 |
| 20260509030012 | 73 | 152 | 0.9 | 8.7 | 0.00 | 0.00 | 0.00 | 55 | 1022.5 |
| 20260509024512 | 74 | 46 | 2.6 | 7.8 | 0.00 | 0.00 | 0.00 | 54 | 1022.7 |
| 20260509023017 | 73 | 124 | 1.7 | 7.0 | 0.00 | 0.00 | 0.00 | 56 | 1023.0 |
| 20260509021516 | 74 | 229 | 2.6 | 6.1 | 0.00 | 0.00 | 0.00 | 54 | 1023.2 |
| 20260509020004 | 72 | 118 | 4.3 | 8.7 | 0.00 | 0.00 | 0.00 | 55 | 1023.4 |
| 20260509014503 | 72 | 173 | 5.2 | 9.6 | 0.00 | 0.00 | 0.00 | 53 | 1023.6 |
| 20260509013107 | 72 | 193 | 5.2 | 10.4 | 0.00 | 0.00 | 0.00 | 53 | 1023.7 |